Regional Weather Roundup
Issued by NWS Kansas City/Pleasant Hill, MO

Home | Current Version | Previous Version | Text Only | Print | Product List | Glossary On
Versions: 1 2 3 4 5 6 7 8 9 10 11 12 13 14 15 16 17 18 19 20 21 22 23 24 25 26 27 28 29 30 31 32 33 34 35 36 37 38 39 40 41 42 43 44 45 46 47 48 49 50
000
ASUS43 KEAX 260710
RWREAX

WEATHER ROUNDUP FOR EASTERN KANSAS AND NORTHWEST MISSOURI
NATIONAL WEATHER SERVICE KANSAS CITY/PLEASANT HILL MO
200 AM CDT SUN MAY 26 2019

KSZ040-057-103>105-MOZ028-029-037-043-260800-
...KANSAS CITY METROPOLITAN AREA...

CITY           SKY/WX    TMP DP  RH WIND       PRES   REMARKS
K.C. INTL      LGT RAIN  65  65 100 S5        30.00F
K.C. DOWNTOWN  CLOUDY    68  63  84 CALM      29.97F
LEES SUMMIT    CLOUDY    66  63  90 CALM      30.00F
OLATHE - IXD   NOT AVBL
OLATHE - OJC   CLOUDY    64  63  96 E5        29.96F
LAWRENCE       CLOUDY    65  62  90 NE10      29.95F

$$

MOZ001>008-011>017-020>025-030>033-038>040-044>046-053-054-260800-
...NORTHERN AND CENTRAL MISSOURI...

CITY           SKY/WX    TMP DP  RH WIND       PRES   REMARKS
ST. JOSEPH     CLOUDY    65  63  93 W5        29.99R
WARRENSBURG    CLOUDY    70  61  73 W10G21    30.01R
WHITEMAN AFB   CLOUDY    74  69  81 SW8       29.95F
CLINTON        CLOUDY    73  68  83 SW7       30.00F
SEDALIA        CLOUDY    70  67  90 SW8       30.00F
WARSAW         NOT AVBL
CHILLICOTHE      N/A     67  65  93 E3        29.99R
KIRKSVILLE     TSTM      64  63  96 W6        30.03R VSB 1/2

$$

MOZ041-047>049-056>058-063>065-088>090-097-260800-
...EASTERN AND SOUTHERN MISSOURI...

CITY           SKY/WX    TMP DP  RH WIND       PRES   REMARKS
ST. LOUIS INTL MOCLDY    78  68  71 SW9       30.02F
SPIRIT OF STL  CLOUDY    76  69  79 S7        30.01S
COLUMBIA       CLOUDY    72  66  81 S7        30.00F
ROLLA          CLOUDY    72  66  81 SW7       30.05F
OSAGE BEACH    CLOUDY    74  67  78 S6        30.02
SPRINGFIELD    CLOUDY    71  65  81 S7        30.05S
BRANSON        CLOUDY    72  63  73 CALM      30.09R
JOPLIN         LGT RAIN  70  62  76 NW8       30.06R
WEST PLAINS    CLOUDY    72  63  73 SW3       30.09R

$$

IAZ060-094-KSZ022-034>040-054-083-096-NEZ052-066-093-260800-
...KANSAS...SOUTHEAST NEBRASKA AND IOWA...

CITY           SKY/WX    TMP DP  RH WIND       PRES   REMARKS
TOPEKA         CLOUDY    65  62  90 CALM      29.97F
MANHATTAN      MOCLDY    65  62  90 CALM      29.96F
CHANUTE        LGT RAIN  69  60  73 S21G35    29.98F
WICHITA        CLOUDY    64  60  87 S5        29.94F
OMAHA          CLOUDY    67  53  61 N3        30.01R THUNDER
LINCOLN        CLOUDY    64  53  67 NE10      30.01R
FALLS CITY     CLOUDY    65  65 100 CALM      29.97F
LAMONI         RAIN      64  61  90 W17       30.02F
DES MOINES     CLOUDY    67  51  56 NE6       29.99R THUNDER

$$




USA.gov is the U.S. government's official web portal to all federal, state and local government web resources and services.